User: anonymous   Login
Location: Grange Verzio
(44.5000°N, 6.9833°E)
Time: 21:32:52
(UTC+00:00)
Language:

Cosmos 1023 Rocket - Orbit

View from above orbital plane
View from above orbital plane
View from above satellite
View from above satellite

Ground track
Ground track

The orbit data is extracted from the following two-line orbital elements,

1 10962U 78063B   24151.56704940  .00000459  00000-0  14738-3 0  9994
2 10962  74.0784 209.3832 0024700 180.9669 179.1444 14.42008771411526
Epoch (UTC): 30 May 2024 13:36:33
Eccentricity: 0.0024700
inclination: 74.0784°
perigee height: 734 km
apogee height: 769 km
right ascension of ascending node: 209.3832°
argument of perigee: 180.9669°
revolutions per day: 14.42008771
mean anomaly at epoch: 179.1444°
orbit number at epoch: 41152

The dashed part of the orbit path shows where the satellite is in the earth's shadow,  

DLR